Effective Sunday, March 17, 2024, the National Weather Service National Data Buoy Center will discontinue its Dial-A-Buoy Interactive Voice Response system. For more information, see Service Change Notice 24-06 (PDF).

Station 41033 - Fripp Nearshore, SC (FRP2) Image indicating link to RSS feed of recent meteorological observations for station 41033


Conditions at 41033 as of
(10:08 am EST)
1508 GMT on 02/24/2024:
     

Click on the graph icon in the table below to see a time series plot of the last five days of that observation.

5-day plot - Wind Direction Wind Direction (WDIR):WNW ( 300 deg true )
5-day plot - Wind Speed Wind Speed (WSPD): 15.5 kts
5-day plot - Wind Gust Wind Gust (GST): 17.5 kts
5-day plot - Atmospheric Pressure Atmospheric Pressure (PRES):29.91 in
5-day plot - Air Temperature Air Temperature (ATMP): 56.3 °F
5-day plot - Dew Point Dew Point (DEWP): 41.7 °F
5-day plot - Wind Speed at 10 Meters Wind Speed at 10 meters (WSPD10M): 17.5 kts
5-day plot - Wind Speed at 20 Meters Wind Speed at 20 meters (WSPD20M): 17.5 kts
5-day plot -  Wind Speed, Wind Gust and Atmospheric Pressure Combined plot of Wind Speed, Gust, and Air Pressure
Previous observations
TIME
(EST)
5-day plot - Wind Direction
WDIR
 
5-day plot - Wind Speed
WSPD
kts
5-day plot - Wind Gust
GST
kts
5-day plot - Wave Height
WVHT
ft
5-day plot - Dominant Wave Period
DPD
sec
5-day plot - Average Wave Period
APD
sec
5-day plot - Mean Wave Direction
MWD
 
5-day plot - Atmospheric Pressure
PRES
in
5-day plot - Pressure Tendency
PTDY
in
5-day plot - Air Temperature
ATMP
°F
5-day plot - Water Temperature
WTMP
°F
5-day plot - Dew Point
DEWP
°F
5-day plot - Salinity
SAL
psu
5-day plot - Visibility
VIS
nmi
5-day plot - Tide (above MLLW)
TIDE
ft
2024-02-24 09:08 amWNW 15.5 21.4----29.89- 54.9- 41.0---
2024-02-24 08:08 amWNW 15.5 21.4----29.88- 54.0- 41.5---
2024-02-24 07:08 amWNW 15.5 19.4----29.84- 53.8- 41.9---
2024-02-24 06:08 amWNW 13.6 19.4----29.81- 54.5- 42.6---
2024-02-24 05:08 amWNW 11.7 15.5----29.80- 55.8- 43.3---
2024-02-24 04:08 amWNW 11.7 15.5----29.78- 56.1- 44.4---
2024-02-24 03:08 amWNW 9.7 13.6----29.78- 56.7- 45.0---
2024-02-24 02:08 amWNW 9.7 13.6----29.78- 57.2- 46.2---
2024-02-24 01:08 amWNW 11.7 15.5----29.77- 57.7- 46.0---
2024-02-24 12:08 amWNW 11.7 13.6----29.75- 57.9- 47.1---
2024-02-23 11:08 pmWNW 9.7 13.6----29.74- 58.8- 48.4---
2024-02-23 10:08 pmWNW 9.7 13.6----29.72- 59.9- 49.5---
2024-02-23 06:08 pm SW 9.7 13.6----29.62- 58.8- 52.7---
2024-02-23 05:08 pm SW 9.7 13.6----29.61- 59.0- 52.9---
2024-02-23 04:08 pm SW 13.6 19.4----29.59- 58.5- 52.7---
2024-02-23 03:08 pm SW 15.5 21.4----29.61- 58.3- 52.5---
2024-02-23 02:08 pm SW 19.4 25.3----29.63- 57.9- 52.2---
2024-02-23 01:08 pm SW 21.4 25.3----29.66- 57.9- 51.8---
2024-02-23 12:08 pm SW 21.4 31.1----29.67- 57.9- 51.4---
2024-02-23 11:08 am SW 21.4 27.2----29.72- 57.6- 50.9---
2024-02-23 10:08 am SW 19.4 25.3----29.73- 57.2- 50.5---